Lid_Strength_Index
2 3 2 2 2 2 2 2 2 2 2 2 2 2 1 2 3 3 6 4 3 -2 -2 1 1 1 2 3 3 3 6 8 8 8 8 6 7 5 4 5 5 4 4 3 1
2 2 2 2 2 2 2 2 2 2 2 2 2 2 1 2 3 6 0 -1 -2 -2 2 2 3 2 3 4 3 5 7 7 6 6 7 6 6 6 6 6 6 5 3 2 2
2 2 2 2 2 2 2 2 2 3 3 2 2 2 1 1 5 4 -1 -2 -2 -1 3 3 2 3 4 4 4 5 7 6 6 5 5 6 6 5 6 7 6 6 4 3 3
2 2 2 2 2 2 2 2 3 3 3 3 2 2 1 1 6 3 -1 -2 -1 1 4 3 2 4 5 5 4 6 5 5 6 5 5 6 5 6 6 6 4 4 3 3 3
2 2 2 3 3 3 2 2 3 3 3 2 2 1 2 6 5 2 -0 -2 2 4 4 3 3 4 5 5 5 6 6 5 5 5 5 5 6 6 6 4 3 3 3 3 3
2 2 2 2 3 2 2 3 3 3 3 2 2 1 4 8 5 2 4 4 3 3 3 3 3 3 4 5 5 5 5 5 5 5 5 6 6 5 5 4 4 4 4 3 3
3 3 3 3 3 3 3 3 3 3 3 2 2 2 6 6 4 3 4 5 3 3 3 2 2 3 3 5 4 5 7 6 6 6 6 5 7 7 5 4 5 4 4 3 3
3 3 3 3 3 3 3 4 3 3 2 2 1 3 7 5 4 4 3 4 5 3 3 2 1 3 4 3 5 6 6 8 7 6 6 6 9 6 4 5 5 5 4 4 3
3 3 4 3 3 4 4 4 3 2 2 1 2 4 7 3 4 3 3 4 4 4 3 2 2 3 4 6 7 7 9 9 8 6 6 7 9 6 4 5 5 5 4 4 3
3 4 4 4 4 4 4 3 3 2 1 1 3 6 6 6 4 4 3 5 5 4 4 3 3 5 5 6 10 9 9 8 8 6 6 8 8 6 5 5 5 5 4 4 4
3 4 4 4 5 5 4 3 3 4 3 5 6 7 6 4 3 4 3 5 5 4 6 4 6 7 6 6 6 7 8 8 7 5 7 7 7 7 6 5 6 5 4 4 4
3 3 4 4 5 5 3 3 4 4 6 4 4 4 4 4 6 4 3 4 6 7 5 6 7 5 5 5 6 7 8 8 7 6 7 7 8 6 6 6 5 5 5 4 4
3 3 3 4 5 3 3 4 3 3 6 5 5 5 5 4 6 5 4 4 5 6 6 7 6 5 6 6 7 7 8 8 8 6 6 7 8 8 6 5 5 4 4 4 4
3 3 3 4 4 3 3 3 2 3 7 8 6 5 5 5 6 4 3 4 5 6 5 6 5 6 6 7 6 8 6 7 7 7 10 7 11 8 7 7 6 5 4 4 4
4 4 4 5 3 3 3 2 2 4 11 7 6 4 5 6 6 6 3 4 5 6 5 6 6 6 7 6 5 7 6 7 7 8 8 8 9 8 7 8 7 6 5 4 3
4 4 5 3 2 2 2 2 3 8 12 8 6 7 7 6 6 5 5 4 4 5 5 5 4 5 5 5 5 5 7 7 7 8 11 9 9 8 7 8 7 6 5 4 4
5 5 5 3 2 1 1 3 8 11 8 8 8 7 7 8 7 6 7 7 7 8 8 6 6 5 5 6 5 6 7 11 12 12 12 8 9 8 6 6 6 6 5 4 4
5 6 4 3 1 1 1 5 11 10 9 6 8 7 8 7 7 7 7 7 6 6 7 8 9 6 5 5 7 7 7 10 14 13 12 8 10 8 6 6 5 5 4 4 4
6 1 2 1 1 1 4 9 8 9 7 8 7 8 8 8 8 7 7 7 6 6 8 8 8 5 5 5 5 7 8 6 8 9 11 9 8 6 6 6 6 6 5 5 4
3 2 1 1 1 2 5 9 7 7 6 7 9 7 9 8 8 8 8 6 7 6 5 6 9 6 5 5 5 6 5 8 8 12 14 10 10 9 8 8 7 7 6 5 4
3 4 2 1 2 4 8 7 6 5 6 7 8 8 7 8 7 8 8 7 6 6 5 5 7 7 6 7 7 7 7 7 7 8 12 13 11 6 7 6 7 6 6 5 5
3 5 1 1 6 4 7 6 7 6 5 6 6 7 7 7 7 7 7 6 6 5 7 5 7 9 8 5 5 5 7 7 10 11 9 9 10 6 6 5 6 6 5 5 4
4 3 1 1 7 7 6 6 5 6 5 6 6 6 6 7 8 7 6 5 5 6 6 5 8 9 8 7 5 7 6 6 6 7 9 11 10 6 6 6 6 6 5 5 4
4 7 4 3 3 6 7 7 7 5 5 5 5 5 6 6 6 7 7 5 6 5 2 4 7 8 10 8 7 8 7 6 7 9 9 8 8 8 7 7 6 6 6 5 4
3 6 5 6 6 6 6 7 8 8 6 5 6 6 6 8 7 7 6 6 5 6 5 5 8 7 7 7 7 7 7 7 7 7 8 7 7 6 6 6 6 5 5 5 5
5 6 4 5 6 6 8 7 8 7 7 7 7 6 7 8 7 8 7 6 6 5 5 5 7 7 8 7 7 8 7 7 7 7 7 7 7 4 5 5 6 6 6 6 5
4 3 4 7 7 7 7 7 7 7 6 6 6 7 7 6 5 5 5 5 5 6 7 6 7 8 9 7 7 9 7 7 6 6 6 8 6 5 6 6 6 6 5 5 5